Radiation Dose at Monitoring Post of Fukushima Daini Nuclear Power Station
Date,Time,MP-1(microSv/h),MP-2(microSv/h),MP-3(microSv/h),MP-4(microSv/h),MP-5(microSv/h),MP-6(microSv/h),MP-7(microSv/h),Wind Direction,Wind Velocity(m/s),Rain
2022/07/08,00:00,0.149,0.138,0.222,0.212,0.211,0.118,0.076,north-northwest,4.9,Yes
2022/07/08,00:10,0.148,0.138,0.220,0.213,0.212,0.117,0.075,north-northwest,5.6,Yes
2022/07/08,00:20,0.150,0.138,0.222,0.213,0.212,0.118,0.076,north-northwest,5.8,Yes
2022/07/08,00:30,0.150,0.139,0.220,0.211,0.211,0.117,0.076,north-northwest,6.1,Yes
2022/07/08,00:40,0.149,0.138,0.222,0.212,0.214,0.117,0.076,north-northwest,6.0,Yes
2022/07/08,00:50,0.150,0.138,0.222,0.212,0.212,0.117,0.075,north-northwest,5.6,Yes
2022/07/08,01:00,0.148,0.138,0.220,0.211,0.210,0.117,0.075,north-northwest,5.5,No
2022/07/08,01:10,0.150,0.139,0.222,0.212,0.213,0.117,0.076,north-northwest,6.6,Yes
2022/07/08,01:20,0.149,0.138,0.220,0.211,0.210,0.118,0.075,north-northwest,6.4,No
2022/07/08,01:30,0.149,0.138,0.221,0.213,0.211,0.117,0.075,north-northwest,5.7,Yes
2022/07/08,01:40,0.150,0.139,0.221,0.213,0.213,0.118,0.076,north-northwest,5.4,No
2022/07/08,01:50,0.149,0.138,0.219,0.211,0.211,0.117,0.076,north-northwest,5.3,No
2022/07/08,02:00,0.150,0.139,0.222,0.213,0.213,0.116,0.076,north-northwest,5.8,No
2022/07/08,02:10,0.150,0.138,0.221,0.212,0.212,0.117,0.076,north-northwest,5.9,No
2022/07/08,02:20,0.149,0.139,0.221,0.213,0.210,0.117,0.074,north-northwest,5.9,No
2022/07/08,02:30,0.151,0.139,0.222,0.212,0.213,0.117,0.076,north-northwest,6.1,No
2022/07/08,02:40,0.149,0.139,0.219,0.211,0.213,0.117,0.076,north-northwest,6.4,No
2022/07/08,02:50,0.149,0.139,0.221,0.213,0.212,0.117,0.075,north-northwest,6.4,No
2022/07/08,03:00,0.151,0.138,0.221,0.212,0.214,0.117,0.075,north-northwest,5.9,No
2022/07/08,03:10,0.149,0.139,0.221,0.211,0.212,0.117,0.075,north-northwest,5.8,No
2022/07/08,03:20,0.149,0.140,0.222,0.214,0.210,0.117,0.074,north-northwest,6.5,Yes
2022/07/08,03:30,0.149,0.138,0.221,0.211,0.214,0.117,0.076,north-northwest,6.4,Yes
2022/07/08,03:40,0.148,0.139,0.221,0.213,0.211,0.118,0.076,north-northwest,5.5,Yes
2022/07/08,03:50,0.149,0.138,0.222,0.213,0.213,0.117,0.076,north,5.2,Yes
2022/07/08,04:00,0.150,0.137,0.220,0.210,0.213,0.116,0.076,north,5.1,Yes
2022/07/08,04:10,0.149,0.140,0.222,0.212,0.211,0.117,0.075,north,6.4,Yes
2022/07/08,04:20,0.150,0.138,0.220,0.211,0.213,0.117,0.076,north,5.7,Yes
2022/07/08,04:30,0.149,0.140,0.221,0.211,0.212,0.116,0.076,north,6.8,Yes
2022/07/08,04:40,0.150,0.139,0.221,0.212,0.210,0.118,0.076,north,7.9,Yes
2022/07/08,04:50,0.150,0.137,0.219,0.209,0.214,0.117,0.076,north,6.4,Yes
2022/07/08,05:00,0.149,0.139,0.221,0.213,0.211,0.118,0.075,north,6.9,Yes
2022/07/08,05:10,0.149,0.138,0.220,0.211,0.212,0.118,0.076,north,6.2,Yes
2022/07/08,05:20,0.149,0.139,0.221,0.211,0.211,0.118,0.075,north,6.0,Yes
2022/07/08,05:30,0.150,0.137,0.220,0.212,0.210,0.118,0.076,north-northwest,5.3,Yes
2022/07/08,05:40,0.149,0.138,0.220,0.210,0.214,0.117,0.076,north,6.4,Yes
2022/07/08,05:50,0.148,0.138,0.220,0.211,0.210,0.117,0.076,north,6.2,Yes
2022/07/08,06:00,0.149,0.138,0.218,0.211,0.211,0.118,0.075,north,7.0,Yes
2022/07/08,06:10,0.149,0.139,0.222,0.210,0.211,0.117,0.075,north,6.1,Yes
2022/07/08,06:20,0.149,0.137,0.219,0.212,0.210,0.117,0.076,north,7.0,Yes
2022/07/08,06:30,0.150,0.139,0.220,0.210,0.212,0.117,0.076,north-northwest,6.2,Yes
2022/07/08,06:40,0.148,0.139,0.221,0.211,0.212,0.117,0.075,north-northwest,6.8,Yes
2022/07/08,06:50,0.150,0.138,0.220,0.211,0.209,0.116,0.075,north-northwest,6.3,Yes
2022/07/08,07:00,0.150,0.139,0.221,0.209,0.212,0.118,0.076,north,4.5,Yes
2022/07/08,07:10,0.148,0.139,0.219,0.212,0.212,0.117,0.074,north,6.7,Yes
2022/07/08,07:20,0.150,0.138,0.219,0.212,0.210,0.116,0.075,north,6.1,Yes
2022/07/08,07:30,0.149,0.139,0.222,0.209,0.213,0.118,0.076,north,6.7,Yes
2022/07/08,07:40,0.149,0.139,0.220,0.211,0.212,0.117,0.075,north-northwest,6.9,Yes
2022/07/08,07:50,0.150,0.138,0.219,0.213,0.209,0.117,0.076,north-northwest,6.5,Yes
2022/07/08,08:00,0.149,0.139,0.222,0.211,0.211,0.116,0.075,north-northwest,6.9,No
2022/07/08,08:10,0.148,0.138,0.220,0.209,0.213,0.118,0.076,north-northwest,7.3,No
2022/07/08,08:20,0.150,0.137,0.218,0.213,0.211,0.117,0.075,north-northwest,6.1,No
2022/07/08,08:30,0.150,0.139,0.219,0.210,0.209,0.117,0.075,north,5.3,No
2022/07/08,08:40,0.149,0.139,0.222,0.210,0.211,0.117,0.074,north,7.6,No
2022/07/08,08:50,0.149,0.138,0.220,0.211,0.214,0.117,0.075,north,7.4,No
2022/07/08,09:00,0.151,0.139,0.219,0.213,0.211,0.117,0.075,north,8.6,No
2022/07/08,09:10,0.150,0.138,0.220,0.212,0.211,0.117,0.076,north,6.9,No
2022/07/08,09:20,0.148,0.140,0.223,0.210,0.209,0.117,0.075,north,8.8,No
2022/07/08,09:30,0.150,0.139,0.222,0.210,0.212,0.118,0.076,north,7.4,No
2022/07/08,09:40,0.150,0.138,0.219,0.213,0.212,0.117,0.075,north,8.5,No
2022/07/08,09:50,0.149,0.140,0.220,0.213,0.212,0.117,0.075,north,7.6,No
2022/07/08,10:00,0.151,0.139,0.222,0.211,0.211,0.118,0.076,north,7.2,No
2022/07/08,10:10,0.151,0.138,0.221,0.211,0.212,0.117,0.075,north-northwest,8.2,No
2022/07/08,10:20,0.149,0.139,0.220,0.212,0.213,0.118,0.075,north-northwest,7.2,No
2022/07/08,10:30,0.150,0.138,0.223,0.212,0.213,0.117,0.075,north,6.8,No
2022/07/08,10:40,0.151,0.138,0.221,0.211,0.210,0.117,0.076,north,7.3,No
2022/07/08,10:50,0.150,0.138,0.221,0.210,0.210,0.118,0.076,north,5.7,No
2022/07/08,11:00,0.149,0.138,0.220,0.211,0.209,0.118,0.076,north,7.4,No
2022/07/08,11:10,0.148,0.138,0.219,0.210,0.211,0.118,0.076,north,8.4,No
2022/07/08,11:20,0.150,0.137,0.219,0.211,0.210,0.118,0.076,north,7.8,No
2022/07/08,11:30,0.150,0.137,0.221,0.211,0.211,0.118,0.076,north,6.8,No
2022/07/08,11:40,0.150,0.139,0.220,0.212,0.211,0.118,0.075,north,8.6,No
2022/07/08,11:50,0.149,0.137,0.221,0.211,0.212,0.118,0.075,north,6.6,No
2022/07/08,12:00,0.150,0.139,0.221,0.212,0.212,0.118,0.076,north,8.3,No
2022/07/08,12:10,0.149,0.140,0.221,0.211,0.213,0.119,0.075,north,9.8,No
2022/07/08,12:20,0.151,0.140,0.220,0.212,0.213,0.119,0.075,north,10.1,No
2022/07/08,12:30,0.151,0.140,0.221,0.211,0.213,0.119,0.076,north,8.6,No
2022/07/08,12:40,0.150,0.138,0.220,0.211,0.212,0.119,0.075,north,8.1,No
2022/07/08,12:50,0.150,0.139,0.221,0.211,0.214,0.118,0.075,north,10.4,No
2022/07/08,13:00,0.149,0.138,0.222,0.212,0.213,0.118,0.076,north,10.4,No
2022/07/08,13:10,0.152,0.139,0.224,0.212,0.213,0.118,0.075,north,9.3,No
2022/07/08,13:20,0.151,0.140,0.225,0.214,0.213,0.118,0.075,north,7.9,No
2022/07/08,13:30,0.149,0.140,0.223,0.217,0.211,0.119,0.076,north,10.0,No
2022/07/08,13:40,0.150,0.139,0.221,0.216,0.215,0.119,0.076,north,10.4,No
2022/07/08,13:50,0.151,0.139,0.222,0.214,0.215,0.119,0.076,north,8.8,No
2022/07/08,14:00,0.150,0.140,0.223,0.212,0.215,0.119,0.076,north,8.1,No
2022/07/08,14:10,0.150,0.141,0.225,0.212,0.214,0.118,0.076,north,8.7,No
2022/07/08,14:20,0.151,0.140,0.225,0.212,0.212,0.119,0.075,north,7.3,No
2022/07/08,14:30,0.151,0.139,0.222,0.215,0.213,0.120,0.075,north,7.6,No
2022/07/08,14:40,0.151,0.139,0.221,0.215,0.212,0.118,0.076,north,7.4,No
2022/07/08,14:50,0.149,0.140,0.221,0.213,0.212,0.119,0.077,north,7.3,No
2022/07/08,15:00,0.152,0.140,0.224,0.213,0.214,0.119,0.076,north-northwest,5.6,No
2022/07/08,15:10,0.151,0.140,0.223,0.213,0.215,0.118,0.076,north,7.3,No
2022/07/08,15:20,0.151,0.140,0.222,0.215,0.215,0.117,0.076,north,8.9,No
2022/07/08,15:30,0.151,0.140,0.224,0.214,0.212,0.118,0.076,north,8.5,No
2022/07/08,15:40,0.152,0.141,0.224,0.213,0.214,0.119,0.075,north,8.9,No
2022/07/08,15:50,0.150,0.138,0.224,0.215,0.216,0.119,0.075,north,8.8,No
2022/07/08,16:00,0.151,0.140,0.223,0.216,0.214,0.118,0.076,north,10.3,No
2022/07/08,16:10,0.151,0.140,0.224,0.213,0.212,0.119,0.076,north,9.8,No
2022/07/08,16:20,0.150,0.139,0.224,0.214,0.216,0.119,0.075,north,8.4,No
2022/07/08,16:30,0.151,0.140,0.222,0.216,0.214,0.119,0.077,north,8.9,No
2022/07/08,16:40,0.152,0.142,0.224,0.214,0.213,0.119,0.076,north,7.5,No
2022/07/08,16:50,0.152,0.138,0.223,0.213,0.214,0.119,0.076,north,9.2,No
2022/07/08,17:00,0.151,0.139,0.222,0.216,0.216,0.119,0.076,north,9.5,No
2022/07/08,17:10,0.152,0.140,0.224,0.216,0.213,0.118,0.077,north,8.4,Yes
2022/07/08,17:20,0.150,0.140,0.224,0.212,0.212,0.118,0.076,north,9.5,No
2022/07/08,17:30,0.152,0.140,0.222,0.215,0.216,0.119,0.075,north-northwest,8.3,No
2022/07/08,17:40,0.151,0.141,0.224,0.214,0.215,0.118,0.076,north,7.8,Yes
2022/07/08,17:50,0.150,0.139,0.222,0.214,0.213,0.118,0.076,north-northwest,7.2,Yes
2022/07/08,18:00,0.151,0.141,0.224,0.216,0.215,0.119,0.076,north,7.9,Yes
2022/07/08,18:10,0.151,0.141,0.226,0.215,0.214,0.119,0.076,north,7.5,Yes
2022/07/08,18:20,0.150,0.139,0.224,0.214,0.213,0.118,0.076,north,6.9,Yes
2022/07/08,18:30,0.152,0.141,0.225,0.216,0.216,0.119,0.076,north,8.5,Yes
2022/07/08,18:40,0.151,0.142,0.224,0.213,0.214,0.118,0.078,north,7.9,Yes
2022/07/08,18:50,0.152,0.142,0.223,0.215,0.214,0.119,0.077,north-northwest,7.9,Yes
2022/07/08,19:00,0.152,0.141,0.226,0.214,0.216,0.120,0.077,north,7.6,Yes
2022/07/08,19:10,0.152,0.141,0.223,0.214,0.213,0.119,0.077,north,8.3,Yes
2022/07/08,19:20,0.153,0.140,0.226,0.216,0.215,0.120,0.077,north-northwest,9.2,Yes
2022/07/08,19:30,0.151,0.141,0.224,0.213,0.214,0.120,0.076,north-northwest,7.8,Yes
2022/07/08,19:40,0.152,0.141,0.225,0.215,0.212,0.119,0.077,north-northwest,8.9,Yes
2022/07/08,19:50,0.151,0.140,0.222,0.212,0.213,0.119,0.078,north-northwest,7.1,Yes
2022/07/08,20:00,0.151,0.140,0.223,0.213,0.212,0.119,0.077,north-northwest,7.7,Yes
2022/07/08,20:10,0.151,0.139,0.222,0.212,0.215,0.120,0.077,north-northwest,7.3,Yes
2022/07/08,20:20,0.151,0.141,0.222,0.211,0.212,0.119,0.076,north-northwest,7.1,Yes
2022/07/08,20:30,0.152,0.140,0.221,0.212,0.214,0.120,0.077,north-northwest,7.3,Yes
2022/07/08,20:40,0.151,0.141,0.221,0.210,0.213,0.119,0.078,north-northwest,6.6,Yes
2022/07/08,20:50,0.152,0.140,0.221,0.212,0.211,0.118,0.077,north-northwest,7.2,Yes
2022/07/08,21:00,0.151,0.140,0.221,0.211,0.214,0.119,0.077,north-northwest,7.2,Yes
2022/07/08,21:10,0.151,0.141,0.221,0.212,0.211,0.118,0.077,north-northwest,7.9,Yes
2022/07/08,21:20,0.150,0.140,0.220,0.211,0.214,0.119,0.077,north,8.4,Yes
2022/07/08,21:30,0.150,0.141,0.222,0.212,0.212,0.119,0.077,north-northwest,8.2,Yes
2022/07/08,21:40,0.151,0.138,0.221,0.211,0.212,0.118,0.076,north-northwest,8.1,Yes
2022/07/08,21:50,0.150,0.139,0.221,0.211,0.213,0.118,0.077,north,7.2,Yes
2022/07/08,22:00,0.150,0.138,0.219,0.212,0.211,0.118,0.076,north-northwest,7.4,Yes
2022/07/08,22:10,0.149,0.139,0.219,0.209,0.213,0.117,0.077,north-northwest,7.8,Yes
2022/07/08,22:20,0.150,0.139,0.221,0.211,0.211,0.118,0.076,north-northwest,7.4,Yes
2022/07/08,22:30,0.150,0.139,0.219,0.209,0.211,0.118,0.077,north-northwest,8.1,Yes
2022/07/08,22:40,0.149,0.140,0.220,0.210,0.211,0.118,0.077,north-northwest,6.9,Yes
2022/07/08,22:50,0.151,0.139,0.219,0.209,0.211,0.117,0.076,north-northwest,7.5,Yes
2022/07/08,23:00,0.148,0.139,0.220,0.208,0.212,0.117,0.076,north-northwest,7.3,Yes
2022/07/08,23:10,0.150,0.138,0.217,0.210,0.209,0.118,0.076,north-northwest,7.5,Yes
2022/07/08,23:20,0.149,0.139,0.219,0.208,0.213,0.116,0.076,north-northwest,7.0,Yes
2022/07/08,23:30,0.149,0.138,0.218,0.211,0.211,0.117,0.076,north-northwest,8.1,Yes
2022/07/08,23:40,0.148,0.140,0.218,0.208,0.212,0.116,0.077,north-northwest,7.9,Yes
2022/07/08,23:50,0.148,0.138,0.218,0.210,0.213,0.116,0.077,north-northwest,8.1,Yes
